Regional Weather Roundup
Issued by NWS

Home | Current Version | Previous Version | Graphics & Text | Print | Product List | Glossary On
Versions: 1 2 3 4 5 6 7 8 9 10 11 12 13 14 15 16 17 18 19 20 21 22 23 24 25 26 27 28 29 30 31 32 33 34 35 36 37 38 39 40 41 42 43 44 45 46 47 48 49 50
000
ASUS45 KPSR 182310
RWRAZ

ARIZONA REGIONAL HOURLY WEATHER ROUNDUP
NATIONAL WEATHER SERVICE PHOENIX AZ
400 PM MST FRI APR 18 2014

NOTE: FAIR INDICATES FEW OR NO CLOUDS BELOW 12,000 FEET WITH NO
SIGNIFICANT WEATHER AND/OR OBSTRUCTIONS TO VISIBILITY.

AZZ001>003-036-190000-
NORTHWEST ARIZONA

CITY           SKY/WX    TMP DP  RH WIND       PRES   REMARKS
BULLHEAD CITY  PTSUNNY   84  32  15 S14G23    29.79F
KINGMAN        CLOUDY    74  23  15 SW10G21   29.92F
$$

AZZ004>008-015-016-018-190000-
NORTH CENTRAL ARIZONA

CITY           SKY/WX    TMP DP  RH WIND       PRES   REMARKS
GRAND CANYON   CLOUDY    56  26  31 S12G23    30.10S
WILLIAMS       CLOUDY    52  32  46 SE17G24   30.17S
PRESCOTT       CLOUDY    60  36  40 E6G18     30.04F
FLAGSTAFF      CLOUDY    52  32  46 S21G30    30.11F
PAYSON         CLOUDY    59  36  41 VRB3      30.11F
PAGE           CLOUDY    72  25  17 SW9G18    29.94S
$$

AZZ009>014-017-190000-
NORTHEAST ARIZONA

CITY           SKY/WX    TMP DP  RH WIND       PRES   REMARKS
WINSLOW        CLOUDY    66  31  27 SW22      30.05R
SAINT JOHNS    CLOUDY    64  31  28 W25       30.05R
WINDOW ROCK    CLOUDY    68  19  15 W17G26    30.06R
SHOW LOW       CLOUDY    55  32  41 SW18G24   30.16R
$$

AZZ023-190000-
GREATER PHOENIX AREA

CITY           SKY/WX    TMP DP  RH WIND       PRES   REMARKS
PHOENIX        CLOUDY    81  38  21 E6        29.86F
BUCKEYE          N/A     77  41  27 SE3       29.87F
GLENDALE       CLOUDY    81  39  22 VRB6      29.88F
LUKE AFB       NOT AVBL
DEER VALLEY    CLOUDY    77  39  25 VRB3      29.89F
SCOTTSDALE     CLOUDY    78  39  24 SE8       29.91F
MESA-FALCON    CLOUDY    77  37  24 E8        29.89F
CHANDLER       CLOUDY    79  41  25 E14       29.88F
$$

AZZ027-028-190000-
SOUTHWEST MARICOPA COUNTY AND PINAL COUNTY

CITY           SKY/WX    TMP DP  RH WIND       PRES   REMARKS
CASA GRANDE    CLOUDY    81  37  21 E9        29.88F
GILA BEND      MOCLDY    82  37  20 S7        29.85F
$$

AZZ503-504-507>509-190000-
SOUTHEAST ARIZONA

CITY           SKY/WX    TMP DP  RH WIND       PRES   REMARKS
TUCSON         CLOUDY    75  39  27 SE15G22   29.98S
DAVIS-MONTHAN  CLOUDY    72  43  35 SE20G32   29.97R
NOGALES        CLOUDY    67  43  41 NE7       30.00F
SIERRA VISTA   TSTM      57  46  67 N6        30.06R
DOUGLAS        CLOUDY    71  36  27 N14       29.99F
SAFFORD        CLOUDY    69  42  37 W12       30.03R
$$

AZZ020-021-025-026-031-190000-
SOUTHWEST ARIZONA

CITY           SKY/WX    TMP DP  RH WIND       PRES   REMARKS
YUMA           CLOUDY    83  40  21 SE18      29.80F
$$

CAZ031-033-041-043-047-048-061-190000-
SOUTHERN CALIFORNIA

CITY           SKY/WX    TMP DP  RH WIND       PRES   REMARKS
DOWNTOWN L.A.  MOSUNNY   69  52  54 W8        29.88F
L.A. AIRPORT   PTSUNNY   66  54  65 W15       29.89F
SAN DIEGO      PTSUNNY   67  53  61 W12       29.89F
BURBANK        SUNNY     69  50  50 S10       29.87F
ONTARIO        PTSUNNY   73  49  42 SW10      29.85F
RIVERSIDE      PTSUNNY   73  51  46 W8        29.85F
PALM SPRINGS   PTSUNNY   81  42  25 SW9       29.80F
EL CENTRO NAS  CLOUDY    84  49  29 E7        29.77F
IMPERIAL       CLOUDY    83  50  31 E6        29.76F
BLYTHE         CLOUDY    84  36  18 S10       29.80F
NEEDLES        PTSUNNY   87  31  13 SW14G23   29.79F
$$

NVZ020-UTZ003-190000-
SOUTHERN NEVADA-UTAH

CITY           SKY/WX    TMP DP  RH WIND       PRES   REMARKS
LAS VEGAS      PTSUNNY   79  27  14 SE12G21   29.78F
SALT LAKE CITY CLOUDY    63  39  41 NW13      29.93F
$$

NMZ009-TXZ055-190000-
NEW MEXICO-WEST TEXAS

CITY           SKY/WX    TMP DP  RH WIND       PRES   REMARKS
ALBUQUERQUE    PTSUNNY   78  22  12 S16G24    30.00F
EL PASO        CLOUDY    82  32  16 SE12      29.95F
$$


........................KEY........................
SKY/WX - SKY CONDITION/WEATHER
TMP    - TEMPERATURE IN FAHRENHEIT
DP     - DEW POINT IN FAHRENHEIT
RH     - RELATIVE HUMIDITY IN PERCENT
WIND   - DIRECTION AND SPEED IN MILES PER HOUR (MPH)
VRB    - VARIABLE WIND DIRECTION
PRES   - MEAN SEA LEVEL PRESSURE IN INCHES OF MERCURY
         F - FALLING PRESSURE   R - RISING PRESSURE
         S - STEADY PRESSURE
VSB    - VISIBILITY IN MILES
HX     - HEAT INDEX IN FAHRENHEIT
WCI    - WIND CHILL INDEX IN FAHRENHEIT
TC     - TEMPERATURE IN CELSIUS WHICH IS ALSO KNOWN AS
         TEMPERATURE IN CENTIGRADE
AFB    - AIR FORCE BASE
         LUKE AFB IS LUKE AIR FORCE BASE
         DAVIS-MONTHAN IS DAVIS-MONTHAN AIR FORCE BASE
NAS    - NAVAL AIR STATION
         EL CENTRO NAS IS EL CENTRO NAVAL AIR STATION
N/A    - NOT AVAILABLE



USA.gov is the U.S. government's official web portal to all federal, state and local government web resources and services.